Location: Prostejov
(49.4670°N, 17.1170°E)
Time: 02:04:16
(UTC+01:00)

ISS - Pass Details

Date: 07 October 2020
Orbit: 417 x 420 km, 51.6° (Epoch: 25 October)

Event Time Altitude Azimuth Distance (km) Brightness Sun altitude
Rises 19:34:41 0° 281° (W) 2,368 2.1 -13.5°
Reaches altitude 10° 19:37:43 10° 251° (WSW) 1,500 0.1 -14.0°
Maximum altitude 19:39:15 13° 224° (SW) 1,345 -0.7 -14.2°
Drops below altitude 10° 19:40:48 10° 197° (SSW) 1,495 -0.9 -14.5°
Enters shadow 19:43:22 - 170° (S) 2,206 -0.3 -14.9°
